• En Colombia
  • Lista de países
  • Para 7 días
  • Temperatura del agua
  • El tiempo en el mapa
  • Informadores
  • user-avatar
    Iniciar sesión

    Tiempo cada hora Biskira

    Hoy, 27 Febrero, Jueves

    Tiempo Temperatura Precipitaciones Viento Presión Humedad
    00:00 +16°C° 0 mm 5 mps 754 mmHg 50%
    01:00 +15°C° 0 mm 5 mps 754 mmHg 51%
    02:00 +15°C° 0 mm 5 mps 754 mmHg 51%
    03:00 +14°C° 0 mm 6 mps 754 mmHg 51%
    04:00 +14°C° 0 mm 5 mps 754 mmHg 50%
    05:00 +13°C° 0 mm 5 mps 755 mmHg 48%
    06:00 +13°C° 0 mm 4 mps 755 mmHg 46%
    07:00 +14°C° 0 mm 4 mps 756 mmHg 43%
    08:00 +17°C° 0 mm 4 mps 756 mmHg 40%
    09:00 +18°C° 0 mm 3 mps 757 mmHg 37%
    10:00 +19°C° 0 mm 3 mps 757 mmHg 36%
    11:00 +20°C° 0 mm 3 mps 756 mmHg 36%
    12:00 +21°C° 0 mm 3 mps 756 mmHg 35%
    13:00 +21°C° 0 mm 2 mps 756 mmHg 32%
    14:00 +23°C° 0 mm 2 mps 755 mmHg 29%
    15:00 +23°C° 0 mm 2 mps 755 mmHg 27%
    16:00 +21°C° 0 mm 2 mps 755 mmHg 28%
    17:00 +21°C° 0 mm 1 mps 755 mmHg 30%
    18:00 +20°C° 0 mm 1 mps 755 mmHg 31%
    19:00 +20°C° 0 mm 1 mps 756 mmHg 32%
    20:00 +19°C° 0 mm 1 mps 756 mmHg 33%
    21:00 +19°C° 0 mm 1 mps 756 mmHg 34%
    22:00 +18°C° 0 mm 1 mps 756 mmHg 36%
    23:00 +18°C° 0 mm 1 mps 757 mmHg 37%

    Mañana, 28 Febrero, Viernes

    Tiempo Temperatura Precipitaciones Viento Presión Humedad
    00:00 +16°C° 0 mm 1 mps 757 mmHg 39%
    01:00 +15°C° 0 mm 1 mps 756 mmHg 40%
    02:00 +15°C° 0 mm 1 mps 756 mmHg 42%
    03:00 +14°C° 0 mm 1 mps 756 mmHg 43%
    04:00 +14°C° 0 mm 1 mps 756 mmHg 45%
    05:00 +14°C° 0 mm 1 mps 756 mmHg 46%
    06:00 +13°C° 0 mm 1 mps 756 mmHg 48%
    07:00 +15°C° 0 mm 1 mps 757 mmHg 44%
    08:00 +18°C° 0 mm 1 mps 757 mmHg 39%
    09:00 +20°C° 0 mm 1 mps 757 mmHg 35%
    10:00 +21°C° 0 mm 1 mps 757 mmHg 33%
    11:00 +22°C° 0 mm 1 mps 757 mmHg 31%
    12:00 +23°C° 0 mm 1 mps 757 mmHg 29%
    13:00 +23°C° 0 mm 1 mps 756 mmHg 27%
    14:00 +24°C° 0 mm 1 mps 756 mmHg 26%
    15:00 +24°C° 0 mm 1 mps 755 mmHg 24%
    16:00 +23°C° 0 mm 1 mps 755 mmHg 27%
    17:00 +22°C° 0 mm 1 mps 755 mmHg 29%
    18:00 +21°C° 0 mm 1 mps 755 mmHg 31%
    19:00 +21°C° 0 mm 1 mps 756 mmHg 33%
    20:00 +20°C° 0 mm 1 mps 756 mmHg 34%
    21:00 +19°C° 0 mm 1 mps 756 mmHg 36%
    22:00 +19°C° 0 mm 1 mps 756 mmHg 37%
    23:00 +18°C° 0 mm 1 mps 756 mmHg 38%

    Pasado mañana, 29 Febrero, Sábado

    Tiempo Temperatura Precipitaciones Viento Presión Humedad
    00:00 +18°C° 0 mm 1 mps 755 mmHg 38%
    01:00 +16°C° 0 mm 2 mps 755 mmHg 39%
    02:00 +16°C° 0 mm 2 mps 755 mmHg 40%
    03:00 +16°C° 0 mm 2 mps 754 mmHg 41%
    04:00 +16°C° 0 mm 2 mps 754 mmHg 41%
    05:00 +14°C° 0 mm 3 mps 754 mmHg 42%
    06:00 +14°C° 0 mm 3 mps 754 mmHg 42%
    07:00 +17°C° 0 mm 4 mps 754 mmHg 39%
    08:00 +18°C° 0 mm 4 mps 754 mmHg 36%
    09:00 +20°C° 0 mm 4 mps 754 mmHg 33%
    10:00 +21°C° 0 mm 4 mps 754 mmHg 30%
    11:00 +22°C° 0 mm 4 mps 754 mmHg 27%
    12:00 +23°C° 0 mm 4 mps 753 mmHg 24%
    13:00 +23°C° 0 mm 4 mps 753 mmHg 23%
    14:00 +25°C° 0 mm 3 mps 752 mmHg 22%
    15:00 +25°C° 0 mm 3 mps 751 mmHg 20%
    16:00 +24°C° 0 mm 2 mps 752 mmHg 23%
    17:00 +23°C° 0 mm 2 mps 752 mmHg 25%
    18:00 +22°C° 0 mm 1 mps 752 mmHg 27%
    19:00 +21°C° 0 mm 1 mps 752 mmHg 29%
    20:00 +20°C° 0 mm 1 mps 752 mmHg 30%
    21:00 +18°C° 0 mm 0 mps 753 mmHg 31%
    22:00 +17°C° 0 mm 0 mps 753 mmHg 32%
    23:00 +17°C° 0 mm 0 mps 752 mmHg 33%

    1 Marzo, Domingo

    Tiempo Temperatura Precipitaciones Viento Presión Humedad
    00:00 +16°C° 0 mm 0 mps 752 mmHg 34%
    01:00 +16°C° 0 mm 0 mps 752 mmHg 34%
    02:00 +15°C° 0 mm 0 mps 752 mmHg 34%
    03:00 +16°C° 0 mm 1 mps 752 mmHg 35%
    04:00 +16°C° 0 mm 1 mps 752 mmHg 35%
    05:00 +16°C° 0 mm 2 mps 752 mmHg 36%
    06:00 +16°C° 0 mm 3 mps 752 mmHg 37%
    07:00 +18°C° 0 mm 3 mps 752 mmHg 35%
    08:00 +20°C° 0 mm 4 mps 752 mmHg 32%
    09:00 +22°C° 0 mm 5 mps 753 mmHg 30%
    10:00 +23°C° 0 mm 5 mps 752 mmHg 29%
    11:00 +25°C° 0 mm 5 mps 752 mmHg 28%
    12:00 +26°C° 0 mm 6 mps 752 mmHg 27%
    13:00 +26°C° 0 mm 7 mps 751 mmHg 27%
    14:00 +26°C° 0 mm 8 mps 751 mmHg 26%
    15:00 +26°C° 0 mm 9 mps 751 mmHg 26%
    16:00 +24°C° 0 mm 7 mps 751 mmHg 30%
    17:00 +23°C° 0 mm 6 mps 751 mmHg 33%
    18:00 +22°C° 0 mm 5 mps 751 mmHg 37%
    19:00 +22°C° 0 mm 5 mps 752 mmHg 39%
    20:00 +21°C° 0 mm 5 mps 752 mmHg 41%
    21:00 +20°C° 0 mm 5 mps 753 mmHg 43%
    22:00 +20°C° 0 mm 4 mps 753 mmHg 45%
    23:00 +19°C° 0 mm 4 mps 752 mmHg 47%

    2 Marzo, Lunes

    Tiempo Temperatura Precipitaciones Viento Presión Humedad
    00:00 +19°C° 0 mm 4 mps 752 mmHg 49%
    01:00 +18°C° 0 mm 4 mps 752 mmHg 52%
    02:00 +18°C° 0 mm 3 mps 751 mmHg 54%
    03:00 +17°C° 0 mm 3 mps 751 mmHg 56%
    04:00 +17°C° 0 mm 3 mps 751 mmHg 56%
    05:00 +17°C° 0 mm 3 mps 751 mmHg 56%
    06:00 +16°C° 0 mm 2 mps 751 mmHg 57%
    07:00 +18°C° 0 mm 2 mps 751 mmHg 50%
    08:00 +20°C° 0 mm 2 mps 751 mmHg 43%
    09:00 +21°C° 0 mm 2 mps 751 mmHg 36%
    10:00 +24°C° 0 mm 3 mps 750 mmHg 33%
    11:00 +25°C° 0 mm 4 mps 750 mmHg 30%
    12:00 +26°C° 0 mm 6 mps 749 mmHg 27%
    13:00 +27°C° 0 mm 6 mps 748 mmHg 25%
    14:00 +27°C° 0 mm 7 mps 747 mmHg 22%
    15:00 +28°C° 0 mm 7 mps 746 mmHg 20%
    16:00 +27°C° 0 mm 7 mps 746 mmHg 23%
    17:00 +26°C° 0 mm 6 mps 745 mmHg 26%
    18:00 +25°C° 0 mm 5 mps 745 mmHg 29%
    19:00 +23°C° 0 mm 6 mps 746 mmHg 32%
    20:00 +22°C° 0 mm 7 mps 746 mmHg 36%
    21:00 +21°C° 0 mm 7 mps 746 mmHg 39%
    22:00 +18°C° 0 mm 9 mps 747 mmHg 41%
    23:00 +16°C° 0 mm 11 mps 748 mmHg 43%

    3 Marzo, Martes

    Tiempo Temperatura Precipitaciones Viento Presión Humedad
    00:00 +13°C° 0 mm 13 mps 748 mmHg 45%
    01:00 +13°C° 0 mm 12 mps 749 mmHg 45%
    02:00 +12°C° 0 mm 11 mps 749 mmHg 46%
    03:00 +12°C° 0 mm 10 mps 749 mmHg 46%
    04:00 +12°C° 0 mm 9 mps 749 mmHg 46%
    05:00 +11°C° 0 mm 9 mps 750 mmHg 46%
    06:00 +11°C° 0 mm 8 mps 750 mmHg 45%
    07:00 +12°C° 0 mm 10 mps 751 mmHg 41%
    08:00 +13°C° 0 mm 11 mps 751 mmHg 37%
    09:00 +14°C° 0 mm 12 mps 752 mmHg 33%
    10:00 +15°C° 0 mm 12 mps 752 mmHg 30%
    11:00 +17°C° 0 mm 11 mps 752 mmHg 28%
    12:00 +18°C° 0 mm 11 mps 752 mmHg 25%
    13:00 +18°C° 0 mm 10 mps 752 mmHg 24%
    14:00 +18°C° 0 mm 10 mps 751 mmHg 23%
    15:00 +19°C° 0 mm 10 mps 751 mmHg 22%
    16:00 +18°C° 0 mm 9 mps 752 mmHg 23%
    17:00 +17°C° 0 mm 9 mps 752 mmHg 24%
    18:00 +16°C° 0 mm 8 mps 752 mmHg 25%
    19:00 +15°C° 0 mm 7 mps 753 mmHg 27%
    20:00 +15°C° 0 mm 6 mps 754 mmHg 30%
    21:00 +14°C° 0 mm 5 mps 754 mmHg 32%
    22:00 +13°C° 0 mm 5 mps 754 mmHg 34%
    23:00 +13°C° 0 mm 5 mps 754 mmHg 36%
    Mostrar más